Regional Weather Roundup
Issued by NWS

Home | Current Version | Previous Version | Text Only | Print | Product List | Glossary Off
Versions: 1 2 3 4 5 6 7 8 9 10 11 12 13 14 15 16 17 18 19 20 21 22 23 24 25 26 27 28 29 30 31 32 33 34 35 36 37 38 39 40 41 42 43 44 45 46 47 48 49 50

000
ASUS43 KMPX 011610
RWRMN
WEATHER ROUNDUP FOR MINNESOTA
NATIONAL WEATHER SERVICE TWIN CITIES/CHANHASSEN MN
1100 AM CDT WED JUL 01 2015


NOTE: "FAIR" INDICATES FEW OR NO CLOUDS BELOW 12,000 FEET WITH NO
SIGNIFICANT WEATHER AND/OR OBSTRUCTIONS TO VISIBILITY. N/A MEANS
CURRENT SKY AND/OR WEATHER CONDITIONS ARE NOT AVAILABLE.

MNZ060>063-068>070-011700-
   Twin Cities Metro

CITY           SKY/WX    TMP DP  RH WIND       PRES   REMARKS
TWIN CITIES    CLOUDY    61  48  62 E7        30.02R
ST PAUL        CLOUDY    59  49  69 E6        30.03R
CRYSTAL        CLOUDY    62  48  60 E5        30.01R
BLAINE         PTSUNNY   63  48  59 MISG      30.02R
LAKEVILLE      CLOUDY    59  52  77 E5        30.02R
EDEN PRAIRIE   CLOUDY    61  50  67 SE6       30.01R
SOUTH ST PAUL  CLOUDY    60  49  67 CALM      30.02R
LAKE ELMO      FAIR      61  50  67 S3        30.04R
$$
MNZ001>005-007-008-013>017-022>024-027-028-011700-
   Northwest Minnesota

CITY           SKY/WX    TMP DP  RH WIND       PRES   REMARKS
BEMIDJI        MOSUNNY   71  62  72 CALM      29.97S
HALLOCK        SUNNY     73  57  56 SW3       29.95S
ROSEAU         SUNNY     73  61  64 CALM      29.96S
WARROAD        SUNNY     73  61  64 CALM      29.96F
THIEF RVR FALL SUNNY     72  57  60 CALM      29.97R
CROOKSTON      SUNNY     72  61  68 CALM      29.96S
FOSSTON        SUNNY     72  61  68 SW7       29.97S
DETROIT LAKES  PTSUNNY   70  61  73 SW6       30.00R
MOORHEAD       SUNNY     70  61  73 S8        29.98R
PARK RAPIDS    MOSUNNY   71  60  68 VRB5      29.98S
MAHNOMEN       FAIR      71  60  69 SW8       29.97S
$$
MNZ006-009>011-018-025>026-011700-
   North Central Minnesota

CITY           SKY/WX    TMP DP  RH WIND       PRES   REMARKS
BAUDETTE       SUNNY     73  55  53 NE5       29.96S
FLAG ISLAND    SUNNY     68  59  73 S7        29.95S HAZE
INTL FALLS     SUNNY    N/A N/A N/A MISG      29.98S
WASKISH        SUNNY     72  63  73 W5        29.97S
BIG FORK       SUNNY     72  59  64 CALM      29.99R
LONGVILLE      MOSUNNY   70  55  60 S6        29.99S
GRAND RAPIDS   PTSUNNY   66  54  63 S6        30.01R
CRANE LAKE     SUNNY     66  55  68 NE1       30.01S
ORR            SUNNY     66  54  63 CALM      29.97S
COOK           SUNNY     66  55  68 CALM      30.00S
WALKER         FAIR      70  60  69 SW5       29.98S
$$
MNZ012-019>021-037-011700-
   Northeast Minnesota

CITY           SKY/WX    TMP DP  RH WIND       PRES   REMARKS
DULUTH         MOSUNNY   66  51  58 SW7       30.02S
ELY            SUNNY     66  48  52 CALM      30.00S
HIBBING        SUNNY     66  50  56 VRB6      30.01S
DULUTH HARBOR  MOSUNNY   61  54  77 NE5       30.03S
TWO HARBORS    PTSUNNY   66  55  68 S7        30.01R
SILVER BAY     MOSUNNY   64  52  63 SE7       30.00S
GRAND MARAIS     N/A     51  46  83 SW6       30.02S
G MARAIS ARPRT MOSUNNY   64  45  48 S3        30.03R
$$
MNZ029>031-032-039>041-046>048-054>057-064-011700-
   West Central Minnesota

CITY           SKY/WX    TMP DP  RH WIND       PRES   REMARKS
FERGUS FALLS   SUNNY     68  59  73 S9        29.98R
WHEATON        PTSUNNY   63  57  82 SE10      29.98S
MORRIS         PTSUNNY   66  57  72 SE12      29.98R
ALEXANDRIA     PTSUNNY   66  57  72 S9        30.01S
ELBOW LAKE     FAIR      66  57  74 SE12      29.99R
WADENA         PTSUNNY   68  57  68 S7        29.99R
GLENWOOD       PTSUNNY   63  54  72 SE7       30.01R
APPLETON       CLOUDY    64  55  72 SE6       29.97R
BENSON         CLOUDY    64  54  68 S8        29.99R
ORTONVILLE     CLOUDY    64  57  77 SE8       29.96F
MADISON        CLOUDY    64  57  77 SE10      29.97S
WILLMAR        FAIR      63  55  77 SE8       30.01S
$$
MNZ033>034-036-042>043-049>051-058-059-011700-
   Central Minnesota

CITY           SKY/WX    TMP DP  RH WIND       PRES   REMARKS
ST CLOUD       PTSUNNY   63  51  65 SE7       30.01S
SAUK CENTRE    FAIR      62  53  70 SE8       30.01R
PAYNESVILLE    CLOUDY    60  51  72 E9        30.02R
AITKIN         SUNNY     70  52  52 S8        29.99S
PINE RIVER     SUNNY     70  55  60 S7        30.02S
BRAINERD       SUNNY     69  47  45 S10       30.01S
STAPLES        PTSUNNY   68  54  60 S9        30.00R
LONG PRAIRIE   FAIR      63  52  67 SE9       30.02R
LITTLE FALLS   MOSUNNY   68  43  40 SE7       30.01S
LITCHFIELD     CLOUDY    63  55  77 SE5       30.02R
BUFFALO        CLOUDY    60  51  70 CALM      30.03R
MAPLE LAKE     CLOUDY    62  54  76 SE3       30.02S
$$
MNZ037-044-045-052-053-011700-
   East Central Minnesota

CITY           SKY/WX    TMP DP  RH WIND       PRES   REMARKS
PRINCETON      PTSUNNY   70  46  43 S6        30.02R
MORA           SUNNY     64  45  48 SE5       30.03S
CAMBRIDGE      MOSUNNY   68  48  49 CALM      30.00S
RUSH CITY      MOSUNNY   65  49  55 SE5       30.02F
MOOSE LAKE     SUNNY     64  52  63 S5        30.00F
HINCKLEY       FAIR      66  48  52 SE7       30.02S
CLOQUET        MOSUNNY   64  46  52 SW5       30.02S
MCGREGOR       SUNNY     66  50  55 S5        30.02S
$$
MNZ071>073-080-081-089-090-097-098-011700-
   Southwest Minnesota

CITY           SKY/WX    TMP DP  RH WIND       PRES   REMARKS
MONTEVIDEO     CLOUDY    64  55  72 S7        29.99S
GRANITE FALLS  CLOUDY    63  55  74 SE9       30.00S
CANBY          CLOUDY    64  60  88 SE9       29.98S
MARSHALL         N/A     61  55  82 SE9         N/A
REDWOOD FALLS  CLOUDY    62  56  80 E5        29.99R
OLIVIA         CLOUDY    57  52  82 SE7       29.98F
PIPESTONE      CLOUDY    63  57  82 E12       29.96S
WINDOM         LGT RAIN  63  57  82 E7        29.99R
WORTHINGTON    CLOUDY    61  55  82 E9        29.97S
JACKSON        CLOUDY    63  57  82 E9        29.98S
TRACY          LGT RAIN  62  60  93 SE6       29.99R
SLAYTON        CLOUDY    61  58  91 CALM      29.99S
$$
MNZ065>067-074>077-082>085-091>093-011700-
   South Central Minnesota

CITY           SKY/WX    TMP DP  RH WIND       PRES   REMARKS
MANKATO        CLOUDY    61  54  77 E5        30.00F
NEW ULM        CLOUDY    61  55  82 E3        30.00R
ST JAMES       CLOUDY    64  59  82 E7        30.00R
FAIRMONT       CLOUDY    63  54  72 E6        29.98R
GLENCOE        CLOUDY    62  56  81 CALM      30.01R
FARIBAULT      CLOUDY    61  52  72 E5        30.02R
OWATONNA       CLOUDY    63  52  67 E7        30.01S
WASECA         CLOUDY    59  52  77 E3        30.01F
ALBERT LEA     CLOUDY    64  55  72 SE5       29.99S
$$
MNZ078>079-086>088-094>096-011700-
   Southeast Minnesota

CITY           SKY/WX    TMP DP  RH WIND       PRES   REMARKS
ROCHESTER      PTSUNNY   61  52  72 NE6       30.02S
RED WING       CLOUDY    61  52  72 CALM      30.01S
STANTON        CLOUDY    63  52  67 E3        30.00S
DODGE CENTER   CLOUDY    61  52  72 E3        30.01S
WINONA         PTSUNNY   61  50  67 SE7       30.01F
AUSTIN         CLOUDY    64  54  68 E5        30.00S
PRESTON        PTSUNNY   62  51  66 NE3       30.02S
$$
ABBREVIATIONS USED IN REMARKS
   TC - TEMPERATURES IN CELSIUS
  WCI - WIND CHILL INDEX
   HX - HEAT INDEX
  VSB - VISIBILITY
$$


USA.gov is the U.S. government's official web portal to all federal, state and local government web resources and services.